• In Deutschland
  • Länderverzeichnis
  • Für 7 Tage
  • Wassertemperatur
  • Satellitenkarten
  • Wetterkarte
  • Widgets
  • user-avatar
    Anmelden

    Stündliche Wetter Townsville

    Heute, 16 November, Freitag

    Zeit Temperatur Niederschläge Wind Luftdruck Luftfeuchtigkeit
    00:00 +25°C° 0 mm 3 m/S 754 mmHg 83%
    01:00 +25°C° 0 mm 3 m/S 754 mmHg 85%
    02:00 +25°C° 0 mm 3 m/S 754 mmHg 86%
    03:00 +25°C° 0 mm 2 m/S 754 mmHg 87%
    04:00 +24°C° 0 mm 2 m/S 753 mmHg 89%
    05:00 +25°C° 0 mm 2 m/S 754 mmHg 84%
    06:00 +26°C° 0 mm 2 m/S 754 mmHg 78%
    07:00 +27°C° 0 mm 2 m/S 754 mmHg 73%
    08:00 +29°C° 0 mm 2 m/S 754 mmHg 63%
    09:00 +31°C° 0 mm 3 m/S 754 mmHg 53%
    10:00 +34°C° 0 mm 3 m/S 754 mmHg 42%
    11:00 +35°C° 0 mm 3 m/S 754 mmHg 39%
    12:00 +36°C° 0 mm 4 m/S 753 mmHg 35%
    13:00 +37°C° 0 mm 4 m/S 753 mmHg 32%
    14:00 +36°C° 0 mm 4 m/S 752 mmHg 34%
    15:00 +35°C° 0 mm 4 m/S 752 mmHg 36%
    16:00 +34°C° 0 mm 4 m/S 752 mmHg 39%
    17:00 +32°C° 0 mm 4 m/S 752 mmHg 46%
    18:00 +29°C° 0 mm 4 m/S 752 mmHg 54%
    19:00 +27°C° 0 mm 3 m/S 752 mmHg 62%
    20:00 +27°C° 0 mm 3 m/S 753 mmHg 66%
    21:00 +26°C° 0 mm 3 m/S 753 mmHg 71%
    22:00 +25°C° 0 mm 3 m/S 753 mmHg 75%
    23:00 +25°C° 0 mm 3 m/S 753 mmHg 78%

    Morgen, 17 November, Samstag

    Zeit Temperatur Niederschläge Wind Luftdruck Luftfeuchtigkeit
    00:00 +25°C° 0 mm 3 m/S 753 mmHg 80%
    01:00 +24°C° 0 mm 3 m/S 753 mmHg 83%
    02:00 +24°C° 0 mm 2 m/S 753 mmHg 84%
    03:00 +24°C° 0 mm 2 m/S 753 mmHg 86%
    04:00 +24°C° 0 mm 2 m/S 752 mmHg 88%
    05:00 +25°C° 0 mm 2 m/S 753 mmHg 82%
    06:00 +26°C° 0 mm 2 m/S 753 mmHg 77%
    07:00 +27°C° 0 mm 2 m/S 753 mmHg 72%
    08:00 +29°C° 0 mm 2 m/S 753 mmHg 62%
    09:00 +31°C° 0 mm 3 m/S 753 mmHg 52%
    10:00 +34°C° 0 mm 3 m/S 753 mmHg 42%
    11:00 +35°C° 0 mm 4 m/S 753 mmHg 38%
    12:00 +36°C° 0 mm 4 m/S 752 mmHg 35%
    13:00 +36°C° 0 mm 4 m/S 752 mmHg 32%
    14:00 +36°C° 0 mm 4 m/S 752 mmHg 34%
    15:00 +35°C° 0 mm 4 m/S 751 mmHg 36%
    16:00 +34°C° 0 mm 4 m/S 751 mmHg 38%
    17:00 +32°C° 0 mm 4 m/S 751 mmHg 46%
    18:00 +29°C° 0 mm 3 m/S 752 mmHg 55%
    19:00 +27°C° 0 mm 3 m/S 752 mmHg 64%
    20:00 +26°C° 0 mm 2 m/S 752 mmHg 68%
    21:00 +26°C° 0 mm 2 m/S 753 mmHg 73%
    22:00 +25°C° 0 mm 2 m/S 753 mmHg 77%
    23:00 +25°C° 0 mm 2 m/S 753 mmHg 79%

    übermorgen, 18 November, Sonntag

    Zeit Temperatur Niederschläge Wind Luftdruck Luftfeuchtigkeit
    00:00 +24°C° 0 mm 2 m/S 753 mmHg 82%
    01:00 +24°C° 0 mm 2 m/S 752 mmHg 84%
    02:00 +24°C° 0 mm 2 m/S 752 mmHg 86%
    03:00 +24°C° 0 mm 2 m/S 752 mmHg 89%
    04:00 +23°C° 0 mm 2 m/S 752 mmHg 91%
    05:00 +24°C° 0 mm 2 m/S 752 mmHg 85%
    06:00 +25°C° 0 mm 2 m/S 753 mmHg 80%
    07:00 +26°C° 0 mm 3 m/S 753 mmHg 74%
    08:00 +29°C° 0 mm 3 m/S 753 mmHg 64%
    09:00 +32°C° 0 mm 4 m/S 753 mmHg 53%
    10:00 +34°C° 0 mm 4 m/S 753 mmHg 42%
    11:00 +35°C° 0 mm 4 m/S 752 mmHg 40%
    12:00 +35°C° 0 mm 5 m/S 752 mmHg 37%
    13:00 +36°C° 0 mm 5 m/S 751 mmHg 35%
    14:00 +35°C° 0 mm 5 m/S 751 mmHg 37%
    15:00 +34°C° 0 mm 5 m/S 751 mmHg 39%
    16:00 +34°C° 0 mm 5 m/S 750 mmHg 41%
    17:00 +32°C° 0 mm 4 m/S 751 mmHg 52%
    18:00 +29°C° 0 mm 4 m/S 752 mmHg 63%
    19:00 +27°C° 0 mm 3 m/S 752 mmHg 75%
    20:00 +26°C° 0 mm 3 m/S 753 mmHg 78%
    21:00 +26°C° 0 mm 3 m/S 753 mmHg 82%
    22:00 +25°C° 0 mm 3 m/S 753 mmHg 86%
    23:00 +25°C° 0 mm 3 m/S 753 mmHg 86%

    19 November, Montag

    Zeit Temperatur Niederschläge Wind Luftdruck Luftfeuchtigkeit
    00:00 +25°C° 0 mm 3 m/S 753 mmHg 87%
    01:00 +25°C° 0 mm 3 m/S 752 mmHg 88%
    02:00 +25°C° 0 mm 3 m/S 752 mmHg 88%
    03:00 +25°C° 0 mm 3 m/S 752 mmHg 89%
    04:00 +25°C° 0 mm 3 m/S 752 mmHg 89%
    05:00 +25°C° 0.1 mm 4 m/S 753 mmHg 84%
    06:00 +26°C° 0.1 mm 4 m/S 753 mmHg 80%
    07:00 +27°C° 0.1 mm 4 m/S 754 mmHg 75%
    08:00 +29°C° 0 mm 5 m/S 754 mmHg 67%
    09:00 +30°C° 0 mm 5 m/S 754 mmHg 58%
    10:00 +33°C° 0 mm 5 m/S 753 mmHg 50%
    11:00 +34°C° 0 mm 5 m/S 753 mmHg 47%
    12:00 +34°C° 0 mm 5 m/S 752 mmHg 45%
    13:00 +35°C° 0 mm 5 m/S 752 mmHg 42%
    14:00 +34°C° 0 mm 5 m/S 751 mmHg 44%
    15:00 +34°C° 0 mm 5 m/S 751 mmHg 46%
    16:00 +33°C° 0 mm 5 m/S 751 mmHg 48%
    17:00 +30°C° 0 mm 5 m/S 751 mmHg 57%
    18:00 +29°C° 0 mm 4 m/S 752 mmHg 65%
    19:00 +27°C° 0 mm 4 m/S 752 mmHg 74%
    20:00 +27°C° 0 mm 4 m/S 753 mmHg 78%
    21:00 +26°C° 0 mm 4 m/S 753 mmHg 81%
    22:00 +26°C° 0 mm 4 m/S 754 mmHg 85%
    23:00 +26°C° 0 mm 4 m/S 753 mmHg 85%

    20 November, Dienstag

    Zeit Temperatur Niederschläge Wind Luftdruck Luftfeuchtigkeit
    00:00 +26°C° 0 mm 4 m/S 753 mmHg 86%
    01:00 +26°C° 0 mm 4 m/S 753 mmHg 87%
    02:00 +25°C° 0.1 mm 3 m/S 752 mmHg 88%
    03:00 +25°C° 0.1 mm 3 m/S 752 mmHg 89%
    04:00 +25°C° 0.1 mm 3 m/S 752 mmHg 90%
    05:00 +26°C° 0.1 mm 3 m/S 753 mmHg 86%
    06:00 +26°C° 0.1 mm 4 m/S 753 mmHg 81%
    07:00 +27°C° 0.1 mm 4 m/S 754 mmHg 77%
    08:00 +29°C° 0 mm 4 m/S 753 mmHg 69%
    09:00 +32°C° 0 mm 4 m/S 753 mmHg 60%
    10:00 +33°C° 0 mm 5 m/S 753 mmHg 51%
    11:00 +34°C° 0 mm 5 m/S 753 mmHg 50%
    12:00 +34°C° 0 mm 5 m/S 752 mmHg 48%
    13:00 +35°C° 0 mm 5 m/S 751 mmHg 46%
    14:00 +34°C° 0 mm 5 m/S 751 mmHg 49%
    15:00 +33°C° 0 mm 5 m/S 751 mmHg 52%
    16:00 +32°C° 0 mm 4 m/S 750 mmHg 54%
    17:00 +30°C° 0 mm 4 m/S 751 mmHg 62%
    18:00 +28°C° 0 mm 4 m/S 751 mmHg 70%
    19:00 +27°C° 0 mm 4 m/S 751 mmHg 78%
    20:00 +27°C° 0 mm 4 m/S 752 mmHg 80%
    21:00 +26°C° 0 mm 4 m/S 752 mmHg 81%
    22:00 +26°C° 0 mm 4 m/S 752 mmHg 83%
    23:00 +26°C° 0 mm 4 m/S 752 mmHg 84%

    21 November, Mittwoch

    Zeit Temperatur Niederschläge Wind Luftdruck Luftfeuchtigkeit
    00:00 +26°C° 0 mm 4 m/S 751 mmHg 85%
    01:00 +26°C° 0 mm 4 m/S 751 mmHg 86%
    02:00 +26°C° 0 mm 4 m/S 751 mmHg 86%
    03:00 +26°C° 0 mm 4 m/S 750 mmHg 87%
    04:00 +26°C° 0 mm 4 m/S 750 mmHg 88%
    05:00 +26°C° 0 mm 4 m/S 751 mmHg 83%
    06:00 +27°C° 0 mm 4 m/S 751 mmHg 79%
    07:00 +28°C° 0 mm 4 m/S 752 mmHg 75%
    08:00 +30°C° 0 mm 4 m/S 752 mmHg 67%
    09:00 +32°C° 0 mm 4 m/S 752 mmHg 59%
    10:00 +34°C° 0 mm 4 m/S 752 mmHg 51%
    11:00 +35°C° 0 mm 5 m/S 751 mmHg 48%
    12:00 +36°C° 0 mm 5 m/S 751 mmHg 45%
    13:00 +37°C° 0 mm 5 m/S 750 mmHg 42%
    14:00 +36°C° 0 mm 5 m/S 749 mmHg 46%
    15:00 +35°C° 0 mm 5 m/S 749 mmHg 50%
    16:00 +34°C° 0 mm 6 m/S 748 mmHg 54%
    17:00 +32°C° 0 mm 5 m/S 749 mmHg 63%
    18:00 +29°C° 0 mm 5 m/S 749 mmHg 72%
    19:00 +28°C° 0 mm 5 m/S 750 mmHg 81%
    20:00 +28°C° 0 mm 4 m/S 750 mmHg 81%
    21:00 +28°C° 0 mm 4 m/S 750 mmHg 82%
    22:00 +28°C° 0 mm 4 m/S 751 mmHg 83%
    23:00 +28°C° 0.1 mm 4 m/S 750 mmHg 84%
    Mehr zeigen